Location: Oshawa
(43.9000°N, 78.8670°W)
Time: 01:55:31
(UTC-04:00)

S-56A Canister/Altair - All Passes

Search period start: 29 July 2016 00:00
Search period end: 08 August 2016 00:00
Orbit: 641 x 2494 km, 38.9° (Epoch: 27 July)

Date Brightness Start Highest point End Pass type
(mag) Time Alt. Az. Time Alt. Az. Time Alt. Az.
29 Jul - 10:12:58 10° SSE 10:14:02 11° SSE 10:15:05 10° SE daylight
29 Jul - 12:12:52 10° SW 12:17:05 32° SSE 12:21:06 10° E daylight
29 Jul - 14:15:57 10° WSW 14:20:14 47° S 14:25:05 10° ESE daylight
29 Jul - 16:19:19 10° W 16:23:32 30° SSW 16:28:49 10° SE daylight
29 Jul - 18:25:22 10° SW 18:27:00 11° SSW 18:28:47 10° SSW daylight
30 Jul - 11:40:38 10° SW 11:44:57 29° SSE 11:48:51 10° E daylight
30 Jul - 13:43:46 10° WSW 13:48:05 46° S 13:52:41 10° ESE daylight
30 Jul - 15:47:13 10° W 15:51:19 31° SSW 15:56:20 10° SE daylight
30 Jul - 17:52:41 10° SW 17:54:42 12° SSW 17:56:54 10° S daylight
31 Jul - 11:08:21 10° SW 11:12:48 27° SSE 11:16:39 10° ESE daylight
31 Jul - 13:11:33 10° WSW 13:15:57 46° S 13:20:21 10° ESE daylight
31 Jul - 15:15:05 10° W 15:19:08 33° SSW 15:23:54 10° SE daylight
31 Jul - 17:20:10 10° SW 17:22:25 13° SSW 17:24:56 10° S daylight
01 Aug - 10:36:00 10° SW 10:40:37 26° SSE 10:44:29 10° ESE daylight
01 Aug - 12:39:15 10° WSW 12:43:49 45° S 12:48:07 10° ESE daylight
01 Aug - 14:42:55 10° W 14:46:59 34° SSW 14:51:33 10° SE daylight
01 Aug - 16:47:43 10° WSW 16:50:11 14° SSW 16:52:54 10° S daylight
02 Aug - 10:03:36 10° SSW 10:08:25 25° SSE 10:12:20 10° ESE daylight
02 Aug - 12:06:53 10° WSW 12:11:41 44° S 12:15:56 10° ESE daylight
02 Aug - 14:10:42 10° W 14:14:51 36° SSW 14:19:15 10° SE daylight
02 Aug - 16:15:20 10° WSW 16:17:57 15° SSW 16:20:52 10° S daylight
03 Aug - 09:31:09 10° SSW 09:36:11 23° SSE 09:40:12 10° ESE daylight
03 Aug - 11:34:26 10° WSW 11:39:31 44° S 11:43:48 10° E daylight
03 Aug - 13:38:26 10° W 13:42:43 39° SSW 13:47:01 10° ESE daylight
03 Aug - 15:42:57 10° WSW 15:45:46 16° SSW 15:48:50 10° S daylight
04 Aug - 08:58:38 10° SSW 09:03:55 22° SSE 09:08:04 10° ESE daylight
04 Aug - 11:01:55 10° WSW 11:07:21 43° S 11:11:43 10° E daylight
04 Aug - 13:06:06 10° W 13:10:35 41° S 13:14:50 10° ESE daylight
04 Aug - 15:10:34 10° WSW 15:13:35 18° SSW 15:16:49 10° SSE daylight
05 Aug - 08:26:07 10° SSW 08:31:37 22° SSE 08:35:55 10° ESE daylight
05 Aug - 10:29:18 10° WSW 10:35:09 42° S 10:39:39 10° E daylight
05 Aug - 12:33:41 10° W 12:38:27 44° S 12:42:42 10° ESE daylight
05 Aug - 14:38:11 10° WSW 14:41:26 20° SSW 14:44:49 10° SSE daylight
06 Aug - 07:53:33 10° SSW 07:59:16 21° SSE 08:03:44 10° ESE daylight
06 Aug - 09:56:38 10° WSW 10:02:56 42° SSE 10:07:36 10° E daylight
06 Aug - 12:01:11 10° W 12:06:18 46° S 12:10:37 10° ESE daylight
06 Aug - 14:05:46 10° WSW 14:09:18 22° SSW 14:12:50 10° SSE daylight
07 Aug - 07:20:59 10° SSW 07:26:53 20° SSE 07:31:31 10° ESE daylight
07 Aug - 09:23:53 10° SW 09:30:40 41° SSE 09:35:34 10° E daylight
07 Aug - 11:28:36 10° WSW 11:34:08 49° S 11:38:33 10° ESE daylight
07 Aug - 13:33:19 10° W 13:37:10 25° SSW 13:40:51 10° SSE daylight
